AXM216 WBKK-WMKP

Flight info

Callsign AXM216
Flight time N/A
Altitude 36000
Route ADLEX1F ADLEX Y446 PADLO Y447 OLKIT M758 OPULA DCT UPVUN M758 IDSEL DCT VPK G582 VBA DCT SUKAT A457 TEPUS GORVU1F
Aircraft A320/M-SDE3FGHIRWY/LB1

Departure

Time 2026-04-28 08:41
Airport Kota Kinabalu International Airport (WBKK)

Arrival

Time N/A
Airport Penang International Airport (WMKP)
Time Latitude Longitude Altitude Speed Heading
2026-04-28 08:03 5.92494 116.04999 29 ft 0 kts 113°
2026-04-28 08:26 5.92499 116.04987 29 ft 2 kts 113°
2026-04-28 08:26 5.92505 116.04971 29 ft 2 kts 116°
2026-04-28 08:26 5.92514 116.04956 29 ft 2 kts 136°
2026-04-28 08:26 5.92523 116.04949 29 ft 2 kts 184°
2026-04-28 08:27 5.92545 116.04952 29 ft 2 kts 187°
2026-04-28 08:27 5.92552 116.04953 29 ft 2 kts 187°
2026-04-28 08:27 5.92567 116.04954 29 ft 2 kts 187°
2026-04-28 08:27 5.92580 116.04957 29 ft 2 kts 193°
2026-04-28 08:28 5.92597 116.04961 29 ft 2 kts 193°
2026-04-28 08:28 5.92613 116.04966 29 ft 2 kts 206°
2026-04-28 08:28 5.92614 116.04966 29 ft 0 kts 206°
2026-04-28 08:30 5.92591 116.04956 29 ft 4 kts 204°
2026-04-28 08:31 5.92575 116.04948 29 ft 3 kts 204°
2026-04-28 08:31 5.92559 116.04941 29 ft 2 kts 204°
2026-04-28 08:31 5.92552 116.04938 29 ft 1 kts 204°
2026-04-28 08:31 5.92513 116.04921 29 ft 10 kts 204°
2026-04-28 08:32 5.92428 116.04885 29 ft 13 kts 203°
2026-04-28 08:32 5.92400 116.04816 29 ft 7 kts 291°
2026-04-28 08:32 5.92411 116.04776 29 ft 5 kts 269°
2026-04-28 08:32 5.92398 116.04749 29 ft 3 kts 229°
2026-04-28 08:33 5.92377 116.04735 29 ft 5 kts 208°
2026-04-28 08:33 5.92325 116.04713 29 ft 11 kts 202°
2026-04-28 08:33 5.92237 116.04676 29 ft 14 kts 203°
2026-04-28 08:33 5.92140 116.04634 29 ft 21 kts 203°
2026-04-28 08:34 5.91991 116.04572 29 ft 24 kts 202°
2026-04-28 08:34 5.91885 116.04528 29 ft 11 kts 202°
2026-04-28 08:34 5.91841 116.04509 29 ft 0 kts 204°
2026-04-28 08:35 5.91838 116.04508 29 ft 3 kts 204°
2026-04-28 08:35 5.91796 116.04485 29 ft 11 kts 221°
2026-04-28 08:35 5.91788 116.04428 29 ft 10 kts 292°
2026-04-28 08:36 5.91794 116.04417 29 ft 0 kts 294°
2026-04-28 08:37 5.91794 116.04416 29 ft 1 kts 294°
2026-04-28 08:37 5.91805 116.04392 29 ft 7 kts 296°
2026-04-28 08:38 5.91833 116.04333 29 ft 9 kts 297°
2026-04-28 08:38 5.91883 116.04338 29 ft 0 kts 24°
2026-04-28 08:39 5.91889 116.04341 29 ft 6 kts 24°
2026-04-28 08:40 5.92109 116.04435 29 ft 69 kts 23°
2026-04-28 08:40 5.92745 116.04703 29 ft 127 kts 22°
2026-04-28 08:40 5.93703 116.05109 30 ft 171 kts 22°
2026-04-28 08:40 5.94862 116.05584 448 ft 179 kts 24°
2026-04-28 08:41 5.96027 116.06043 947 ft 186 kts 20°
2026-04-28 08:41 5.97315 116.06516 1208 ft 206 kts 20°
2026-04-28 08:41 5.98713 116.07013 1566 ft 224 kts 15°
2026-04-28 08:41 6.00321 116.06961 1853 ft 248 kts 338°
2026-04-28 08:42 6.01669 116.05825 2342 ft 264 kts 302°
2026-04-28 08:42 6.02383 116.04103 3040 ft 271 kts 287°
2026-04-28 08:42 6.02836 116.02274 3761 ft 275 kts 283°
2026-04-28 08:42 6.03279 116.00393 4492 ft 279 kts 284°
2026-04-28 08:43 6.03795 115.98501 5210 ft 283 kts 287°
2026-04-28 08:43 6.04376 115.96598 5915 ft 287 kts 283°
2026-04-28 08:43 6.04581 115.94593 6568 ft 291 kts 266°
2026-04-28 08:43 6.04247 115.92583 7231 ft 294 kts 256°
2026-04-28 08:44 6.03804 115.90571 7922 ft 297 kts 257°
2026-04-28 08:44 6.03367 115.88536 8619 ft 299 kts 257°
2026-04-28 08:44 6.02929 115.86479 9301 ft 302 kts 257°
2026-04-28 08:44 6.02499 115.84457 10205 ft 293 kts 257°
2026-04-28 08:45 6.02073 115.82464 10899 ft 292 kts 257°
2026-04-28 08:45 6.01644 115.80462 11508 ft 294 kts 257°
2026-04-28 08:45 6.01210 115.78447 12104 ft 296 kts 257°
2026-04-28 08:45 6.00772 115.76416 12692 ft 299 kts 257°
2026-04-28 08:46 6.00350 115.74359 13276 ft 302 kts 259°
2026-04-28 08:46 5.99990 115.72268 13825 ft 305 kts 261°
2026-04-28 08:46 5.99661 115.70151 14239 ft 313 kts 261°
2026-04-28 08:46 5.99325 115.67928 14362 ft 331 kts 261°
2026-04-28 08:47 5.98970 115.65580 14475 ft 349 kts 261°
2026-04-28 08:47 5.98592 115.63115 14598 ft 365 kts 261°
2026-04-28 08:47 5.98192 115.60542 14710 ft 380 kts 261°
2026-04-28 08:47 5.97771 115.57888 15004 ft 389 kts 261°
2026-04-28 08:48 5.97336 115.55187 15428 ft 393 kts 261°
2026-04-28 08:48 5.96898 115.52468 15872 ft 396 kts 261°
2026-04-28 08:48 5.96455 115.49729 16313 ft 399 kts 261°
2026-04-28 08:48 5.96008 115.46966 16751 ft 402 kts 261°
2026-04-28 08:49 5.95560 115.44183 17187 ft 405 kts 261°
2026-04-28 08:49 5.95111 115.41373 17617 ft 408 kts 261°
2026-04-28 08:49 5.94662 115.38545 18046 ft 411 kts 261°
2026-04-28 08:49 5.94210 115.35698 18410 ft 414 kts 261°
2026-04-28 08:50 5.93753 115.32836 18776 ft 416 kts 261°
2026-04-28 08:50 5.93288 115.29955 19138 ft 419 kts 261°
2026-04-28 08:50 5.92820 115.27063 19496 ft 421 kts 261°
2026-04-28 08:50 5.92576 115.24130 19841 ft 423 kts 271°
2026-04-28 08:51 5.92662 115.21171 20192 ft 425 kts 272°
2026-04-28 08:51 5.92761 115.18193 20544 ft 428 kts 272°
2026-04-28 08:51 5.92866 115.15239 20886 ft 430 kts 272°
2026-04-28 08:51 5.92971 115.12230 21223 ft 432 kts 272°
2026-04-28 08:52 5.93075 115.09206 21491 ft 437 kts 272°
2026-04-28 08:52 5.93178 115.06133 21670 ft 443 kts 272°
2026-04-28 08:52 5.93282 115.03027 21952 ft 446 kts 272°
2026-04-28 08:52 5.93384 114.99906 22259 ft 448 kts 272°
2026-04-28 08:53 5.93485 114.96772 22562 ft 450 kts 272°
2026-04-28 08:53 5.93584 114.93621 22865 ft 453 kts 272°
2026-04-28 08:53 5.93685 114.90455 23166 ft 455 kts 272°
2026-04-28 08:53 5.93787 114.87273 23448 ft 457 kts 272°
2026-04-28 08:54 5.93888 114.84076 23689 ft 459 kts 271°
2026-04-28 08:54 5.93990 114.80911 23935 ft 460 kts 271°
2026-04-28 08:54 5.94093 114.77694 24182 ft 462 kts 271°
2026-04-28 08:54 5.94197 114.74467 24426 ft 463 kts 271°
2026-04-28 08:55 5.94303 114.71228 24670 ft 465 kts 271°
2026-04-28 08:55 5.94407 114.67983 24911 ft 466 kts 271°
2026-04-28 08:55 5.94509 114.64719 25137 ft 468 kts 271°
2026-04-28 08:55 5.94610 114.61449 25372 ft 469 kts 271°
2026-04-28 08:56 5.94712 114.58165 25605 ft 471 kts 271°
2026-04-28 08:56 5.94816 114.54877 25839 ft 472 kts 271°
2026-04-28 08:56 5.94922 114.51575 26073 ft 474 kts 271°
2026-04-28 08:56 5.95029 114.48266 26302 ft 475 kts 271°
2026-04-28 08:57 5.95135 114.44940 26529 ft 477 kts 271°
2026-04-28 08:57 5.95239 114.41604 26751 ft 478 kts 271°
2026-04-28 08:57 5.95341 114.38259 26963 ft 479 kts 271°
2026-04-28 08:57 5.95442 114.34911 27190 ft 480 kts 271°
2026-04-28 08:58 5.95546 114.31552 27399 ft 481 kts 271°
2026-04-28 08:58 5.95654 114.28186 27608 ft 483 kts 271°
2026-04-28 08:58 5.95761 114.24855 27812 ft 484 kts 271°
2026-04-28 08:58 5.95868 114.21472 28009 ft 485 kts 271°
2026-04-28 08:59 5.95972 114.18070 28204 ft 487 kts 271°
2026-04-28 08:59 5.96074 114.14666 28396 ft 488 kts 271°
2026-04-28 08:59 5.96177 114.11255 28591 ft 489 kts 271°
2026-04-28 08:59 5.96280 114.07837 28775 ft 491 kts 271°
2026-04-28 09:00 5.96280 114.04404 28981 ft 490 kts 263°
2026-04-28 09:00 5.95588 114.01074 29228 ft 486 kts 249°
2026-04-28 09:00 5.94190 113.98002 29470 ft 484 kts 241°
2026-04-28 09:00 5.92641 113.95001 29744 ft 483 kts 240°
2026-04-28 09:01 5.91090 113.92013 29999 ft 482 kts 240°
2026-04-28 09:01 5.89537 113.89025 30189 ft 483 kts 240°
2026-04-28 09:01 5.88003 113.86077 30401 ft 483 kts 240°
2026-04-28 09:01 5.86451 113.83090 30643 ft 482 kts 240°
2026-04-28 09:02 5.84909 113.80109 30886 ft 481 kts 240°
2026-04-28 09:02 5.83373 113.77130 31149 ft 480 kts 241°
2026-04-28 09:02 5.81839 113.74163 31401 ft 478 kts 241°
2026-04-28 09:02 5.80302 113.71201 31662 ft 477 kts 241°
2026-04-28 09:03 5.78768 113.68247 31913 ft 476 kts 241°
2026-04-28 09:03 5.77240 113.65304 32165 ft 475 kts 241°
2026-04-28 09:03 5.75713 113.62367 32424 ft 474 kts 241°
2026-04-28 09:03 5.74189 113.59436 32678 ft 473 kts 241°
2026-04-28 09:04 5.72670 113.56509 32926 ft 472 kts 241°
2026-04-28 09:04 5.71157 113.53592 33182 ft 471 kts 241°
2026-04-28 09:04 5.69645 113.50677 33447 ft 470 kts 242°
2026-04-28 09:04 5.68138 113.47766 33692 ft 469 kts 242°
2026-04-28 09:05 5.66633 113.44857 33802 ft 469 kts 242°
2026-04-28 09:05 5.63641 113.39084 33824 ft 469 kts 242°
2026-04-28 09:06 5.60629 113.33276 33824 ft 469 kts 242°
2026-04-28 09:06 5.57614 113.27469 33824 ft 467 kts 242°
2026-04-28 09:07 5.54605 113.21692 33825 ft 467 kts 242°
2026-04-28 09:07 5.51606 113.15913 33827 ft 467 kts 242°
2026-04-28 09:08 5.48602 113.10135 33827 ft 467 kts 242°
2026-04-28 09:08 5.45580 113.04331 33827 ft 470 kts 242°
2026-04-28 09:09 5.42557 112.98519 33829 ft 470 kts 242°
2026-04-28 09:09 5.39528 112.92707 33829 ft 470 kts 242°
2026-04-28 09:10 5.36524 112.86934 33824 ft 470 kts 242°
2026-04-28 09:10 5.33502 112.81121 33825 ft 470 kts 242°
2026-04-28 09:11 5.30475 112.75310 33824 ft 468 kts 242°
2026-04-28 09:11 5.27460 112.69526 33828 ft 468 kts 242°
2026-04-28 09:12 5.24446 112.63733 33824 ft 468 kts 242°
2026-04-28 09:12 5.21426 112.57936 33827 ft 469 kts 242°
2026-04-28 09:13 5.18423 112.52175 33830 ft 469 kts 242°
2026-04-28 09:13 5.15403 112.46384 33827 ft 469 kts 242°
2026-04-28 09:14 5.12376 112.40583 33829 ft 469 kts 242°
2026-04-28 09:14 5.09348 112.34776 33834 ft 470 kts 242°
2026-04-28 09:15 5.06319 112.28972 33829 ft 470 kts 242°
2026-04-28 09:15 5.03283 112.23158 33828 ft 470 kts 242°
2026-04-28 09:16 5.00254 112.17339 33828 ft 470 kts 242°
2026-04-28 09:16 4.97222 112.11534 33828 ft 470 kts 241°
2026-04-28 09:17 4.94197 112.05763 33832 ft 470 kts 240°
2026-04-28 09:17 4.91199 112.00018 33827 ft 461 kts 241°
2026-04-28 09:18 4.88236 111.94329 33830 ft 460 kts 241°
2026-04-28 09:18 4.85261 111.88643 33829 ft 459 kts 240°
2026-04-28 09:19 4.82900 111.82697 33829 ft 462 kts 254°
2026-04-28 09:19 4.81323 111.76444 33829 ft 462 kts 255°
2026-04-28 09:20 4.79738 111.70200 33830 ft 462 kts 255°
2026-04-28 09:20 4.78155 111.63999 33828 ft 462 kts 255°
2026-04-28 09:21 4.76572 111.57759 33830 ft 462 kts 255°
2026-04-28 09:21 4.74985 111.51512 33828 ft 462 kts 255°
2026-04-28 09:22 4.73399 111.45271 33829 ft 462 kts 255°
2026-04-28 09:22 4.71812 111.39027 33833 ft 462 kts 255°
2026-04-28 09:23 4.70239 111.32819 33835 ft 462 kts 255°
2026-04-28 09:23 4.68650 111.26574 33832 ft 462 kts 255°
2026-04-28 09:24 4.67064 111.20330 33833 ft 462 kts 254°
2026-04-28 09:24 4.65472 111.14092 33832 ft 462 kts 254°
2026-04-28 09:25 4.63862 111.07796 33833 ft 470 kts 255°
2026-04-28 09:25 4.62513 111.02518 33831 ft 471 kts 255°
2026-04-28 09:26 4.60899 110.96162 33838 ft 469 kts 255°
2026-04-28 09:26 4.59290 110.89825 33838 ft 469 kts 255°
2026-04-28 09:27 4.56862 110.80328 33834 ft 469 kts 255°
2026-04-28 09:27 4.55235 110.73960 33835 ft 473 kts 255°
2026-04-28 09:28 4.53615 110.67618 33835 ft 473 kts 255°
2026-04-28 09:28 4.51988 110.61232 33835 ft 473 kts 255°
2026-04-28 09:29 4.50354 110.54843 33835 ft 473 kts 255°
2026-04-28 09:29 4.48722 110.48452 33835 ft 473 kts 255°
2026-04-28 09:30 4.47087 110.42047 33838 ft 475 kts 255°
2026-04-28 09:30 4.45441 110.35634 33838 ft 476 kts 255°
2026-04-28 09:31 4.43798 110.29215 33835 ft 475 kts 255°
2026-04-28 09:31 4.42160 110.22796 33835 ft 475 kts 255°
2026-04-28 09:32 4.40520 110.16425 33835 ft 475 kts 255°
2026-04-28 09:32 4.38871 110.10008 33835 ft 475 kts 255°
2026-04-28 09:33 4.37229 110.03591 33835 ft 475 kts 255°
2026-04-28 09:33 4.35586 109.97173 33835 ft 475 kts 255°
2026-04-28 09:34 4.33937 109.90757 33835 ft 475 kts 255°
2026-04-28 09:34 4.32285 109.84343 33835 ft 475 kts 255°
2026-04-28 09:35 4.30652 109.77973 33838 ft 476 kts 255°
2026-04-28 09:35 4.29004 109.71542 33838 ft 477 kts 255°
2026-04-28 09:36 4.27358 109.65107 33838 ft 477 kts 255°
2026-04-28 09:36 4.25703 109.58671 33838 ft 477 kts 255°
2026-04-28 09:37 4.24024 109.52236 33838 ft 477 kts 255°
2026-04-28 09:37 4.22338 109.45810 33838 ft 477 kts 255°
2026-04-28 09:38 4.20651 109.39368 33838 ft 478 kts 255°
2026-04-28 09:38 4.18965 109.32919 33841 ft 479 kts 255°
2026-04-28 09:39 4.17293 109.26512 33841 ft 479 kts 255°
2026-04-28 09:39 4.15607 109.20063 33841 ft 478 kts 255°
2026-04-28 09:40 4.13916 109.13620 33841 ft 478 kts 255°
2026-04-28 09:40 4.12229 109.07172 33840 ft 478 kts 255°
2026-04-28 09:41 4.10549 109.00724 33844 ft 478 kts 255°
2026-04-28 09:41 4.08860 108.94278 33843 ft 478 kts 255°
2026-04-28 09:42 4.07176 108.87832 33843 ft 478 kts 255°
2026-04-28 09:42 4.05496 108.81389 33843 ft 478 kts 255°
2026-04-28 09:43 4.03813 108.74986 33843 ft 478 kts 255°
2026-04-28 09:43 4.02120 108.68557 33844 ft 477 kts 255°
2026-04-28 09:44 4.00440 108.62134 33844 ft 477 kts 255°
2026-04-28 09:44 3.98774 108.55707 33844 ft 477 kts 255°
2026-04-28 09:45 3.97112 108.49278 33844 ft 477 kts 255°
2026-04-28 09:45 3.95439 108.42853 33847 ft 476 kts 254°
2026-04-28 09:46 3.93767 108.36450 33846 ft 475 kts 254°
2026-04-28 09:46 3.92097 108.30056 33846 ft 474 kts 254°
2026-04-28 09:47 3.90425 108.23660 33846 ft 475 kts 254°
2026-04-28 09:47 3.88767 108.17309 33846 ft 475 kts 254°
2026-04-28 09:48 3.87102 108.10911 33847 ft 474 kts 254°
2026-04-28 09:48 3.85435 108.04516 33846 ft 474 kts 254°
2026-04-28 09:49 3.83766 107.98130 33843 ft 474 kts 254°
2026-04-28 09:49 3.82094 107.91737 33844 ft 474 kts 254°
2026-04-28 09:50 3.80420 107.85345 33844 ft 474 kts 254°
2026-04-28 09:50 3.78748 107.78953 33844 ft 475 kts 254°
2026-04-28 09:51 3.77072 107.72553 33846 ft 474 kts 254°
2026-04-28 09:51 3.75418 107.66221 33844 ft 473 kts 254°
2026-04-28 09:52 3.73754 107.59846 33844 ft 473 kts 254°
2026-04-28 09:52 3.72092 107.53478 33844 ft 473 kts 254°
2026-04-28 09:53 3.70422 107.47110 33843 ft 473 kts 254°
2026-04-28 09:53 3.68753 107.40745 33843 ft 473 kts 254°
2026-04-28 09:54 3.67083 107.34356 33844 ft 477 kts 255°
2026-04-28 09:54 3.65398 107.27922 33847 ft 478 kts 254°
2026-04-28 09:55 3.63707 107.21480 33842 ft 479 kts 254°
2026-04-28 09:55 3.62023 107.15025 33844 ft 479 kts 254°
2026-04-28 09:56 3.60337 107.08612 33847 ft 480 kts 254°
2026-04-28 09:56 3.58640 107.02159 33843 ft 477 kts 255°
2026-04-28 09:57 3.56963 106.95761 33843 ft 474 kts 255°
2026-04-28 09:57 3.55954 106.89270 33845 ft 473 kts 267°
2026-04-28 09:58 3.55624 106.82688 33843 ft 474 kts 267°
2026-04-28 09:58 3.55292 106.76106 33842 ft 474 kts 267°
2026-04-28 09:59 3.54956 106.69521 33847 ft 474 kts 267°
2026-04-28 09:59 3.54617 106.62942 33843 ft 473 kts 267°
2026-04-28 10:00 3.54273 106.56373 33845 ft 473 kts 267°